Ionia, MI

12:03 AM EDT on June 25, 2017 (GMT -0400)
Ionia

Weather History for KY70 - July, 2013

Change the Weather History Date:

Tuesday, July 9, 2013

  Actual Average (KGRR) Record (KGRR)
Temperature  
Mean Temperature 78 °F -  
Max Temperature 88 °F 83 °F 101 °F (1936)
Min Temperature 67 °F 62 °F 48 °F (1961)
Cooling Degree Days 12    
Growing Degree Days 28 (Base 50)    
Moisture  
Dew Point 70 °F    
Average Humidity 83    
Maximum Humidity 98    
Minimum Humidity 49    
Precipitation  
Precipitation 0.00 in - - ()
Sea Level Pressure  
Sea Level Pressure 29.95 in    
Wind  
Wind Speed 2 mph (WSW)    
Max Wind Speed 9 mph    
Max Gust Speed -    
Visibility 7 miles    
Events Fog , Rain    
Averages and records for this station are not official NWS values.
T = Trace of Precipitation, MM = Missing Value Source: NWS Daily Summary

Daily Weather History Graph

Daily Weather History Graph

Search for Another Location

Airport or City:

Trip Planner

Search our weather history database for the weather conditions in past years. The results will help you decide how hot, cold, wet, or windy it might be!

Date:

Astronomy

Jul. 09, 2013 Rise Set
Actual Time 6:10 AM EDT 9:20 PM EDT
Civil Twilight 5:35 AM EDT 9:54 PM EDT
Nautical Twilight 4:51 AM EDT 10:39 PM EDT
Astronomical Twilight 3:57 AM EDT 11:32 PM EDT
Moon 7:37 AM EDT (7/9) 9:53 PM EDT (7/9)
Length of Visible Light 16h 19m
Length of Day
15h 09m
New Moon, 2% of the Moon is Illuminated
Jul 9
New Moon
Jul 15
First Quarter
Jul 22
Full
Jul 29
Last Quarter
Aug 6
New

Hourly Weather History & Observations

Time (EDT) Temp. Heat Index Dew Point Humidity Pressure Visibility Wind Dir Wind Speed Gust Speed Precip Events Conditions
12:14 AM 70.2 °F - 69.1 °F 96% 29.99 in 7.0 mi Calm Calm - N/A   Overcast
12:34 AM 70.0 °F - 68.9 °F 96% 29.99 in 5.0 mi Calm Calm - N/A   Overcast
12:54 AM 69.8 °F - 68.4 °F 95% 29.99 in 5.0 mi Calm Calm - N/A   Mostly Cloudy
1:14 AM 68.9 °F - 68.2 °F 98% 29.98 in 2.0 mi Calm Calm - N/A   Mostly Cloudy
1:34 AM 68.2 °F - 67.5 °F 98% 29.98 in 1.2 mi Calm Calm - N/A   Scattered Clouds
1:54 AM 67.6 °F - 67.1 °F 98% 29.98 in 0.2 mi Calm Calm - N/A Fog Fog
2:14 AM 67.3 °F - 66.7 °F 98% 29.97 in 0.2 mi Calm Calm - N/A Fog Fog
2:34 AM 67.8 °F - 67.3 °F 98% 29.98 in 5.0 mi Calm Calm - N/A   Mostly Cloudy
2:54 AM 68.2 °F - 67.6 °F 98% 29.97 in 5.0 mi Calm Calm - N/A   Overcast
3:14 AM 69.3 °F - 68.7 °F 98% 29.97 in 7.0 mi Calm Calm - N/A   Overcast
3:34 AM 69.8 °F - 68.9 °F 97% 29.99 in 5.0 mi West 5.8 mph - N/A   Overcast
3:54 AM 70.2 °F - 69.3 °F 97% 29.99 in 5.0 mi Calm Calm - N/A   Overcast
4:14 AM 70.5 °F - 69.3 °F 96% 29.99 in 5.0 mi Calm Calm - N/A   Overcast
4:34 AM 70.7 °F - 69.4 °F 96% 29.99 in 5.0 mi Calm Calm - N/A   Overcast
4:54 AM 70.7 °F - 69.4 °F 96% 29.98 in 5.0 mi Calm Calm - N/A   Overcast
5:14 AM 70.2 °F - 68.9 °F 96% 29.99 in 4.0 mi Calm Calm - N/A   Mostly Cloudy
5:34 AM 69.6 °F - 68.9 °F 98% 29.99 in 1.5 mi Calm Calm - N/A   Overcast
5:54 AM 70.3 °F - 69.4 °F 97% 29.99 in 4.0 mi Calm Calm - N/A   Overcast
6:14 AM 70.3 °F - 69.1 °F 96% 29.99 in 2.5 mi Calm Calm - N/A   Overcast
6:34 AM 70.7 °F - 69.8 °F 97% 29.99 in 1.2 mi North - - N/A   Overcast
6:54 AM 70.7 °F - 69.8 °F 97% 29.99 in 1.2 mi Calm Calm - N/A   Overcast
7:14 AM 70.3 °F - 69.4 °F 97% 29.99 in 1.0 mi Calm Calm - N/A   Overcast
7:34 AM 70.9 °F - 70.0 °F 97% 30.00 in 1.2 mi Calm Calm - N/A   Overcast
7:54 AM 71.1 °F - 69.8 °F 96% 30.00 in 1.8 mi Calm Calm - N/A   Overcast
8:14 AM 71.8 °F - 69.6 °F 93% 30.00 in 3.0 mi WNW 3.5 mph - N/A   Overcast
8:34 AM 71.8 °F - 68.9 °F 91% 30.00 in 4.0 mi NNW 3.5 mph - N/A   Overcast
8:54 AM 72.1 °F - 67.5 °F 85% 30.00 in 7.0 mi Calm Calm - N/A   Overcast
9:14 AM 72.5 °F - 68.4 °F 87% 30.00 in 7.0 mi West 4.6 mph - N/A   Overcast
9:34 AM 73.2 °F - 68.4 °F 85% 30.00 in 7.0 mi WNW 4.6 mph - N/A   Overcast
9:54 AM 74.1 °F - 67.8 °F 81% 30.00 in 10.0 mi Calm Calm - N/A   Overcast
10:14 AM 75.0 °F - 68.0 °F 79% 30.00 in 10.0 mi Calm Calm - N/A   Overcast
10:34 AM 75.7 °F - 68.2 °F 77% 30.00 in 10.0 mi Calm Calm - N/A   Mostly Cloudy
10:54 AM 76.8 °F - 68.4 °F 75% 29.99 in 10.0 mi SW 3.5 mph - N/A   Scattered Clouds
11:14 AM 78.1 °F - 68.2 °F 71% 29.99 in 10.0 mi WSW 4.6 mph - N/A   Scattered Clouds
11:34 AM 79.3 °F - 68.2 °F 69% 29.99 in 10.0 mi Calm Calm - N/A   Clear
11:54 AM 81.1 °F 84.0 °F 68.5 °F 65% 29.98 in 10.0 mi SW 3.5 mph - N/A   Clear
12:14 PM 81.1 °F 84.2 °F 68.7 °F 66% 29.98 in 10.0 mi West 4.6 mph - N/A   Clear
12:34 PM 81.7 °F 84.5 °F 68.0 °F 63% 29.97 in 10.0 mi SW 4.6 mph - N/A   Clear
12:54 PM 84.0 °F 87.8 °F 69.1 °F 61% 29.97 in 10.0 mi West 6.9 mph - N/A   Clear
1:14 PM 85.1 °F 88.2 °F 68.0 °F 56% 29.97 in 10.0 mi WSW 8.1 mph - N/A   Clear
1:34 PM 86.4 °F 90.0 °F 68.7 °F 55% 29.96 in 10.0 mi West 5.8 mph - N/A   Clear
1:54 PM 86.7 °F 89.6 °F 67.3 °F 52% 29.95 in 10.0 mi WSW 9.2 mph - N/A   Clear
2:14 PM 86.7 °F 89.9 °F 67.6 °F 53% 29.95 in 10.0 mi West 5.8 mph - N/A   Clear
2:34 PM 87.4 °F 90.8 °F 67.8 °F 52% 29.94 in 10.0 mi SW 9.2 mph - N/A   Scattered Clouds
2:54 PM 86.4 °F 89.0 °F 66.9 °F 52% 29.94 in 10.0 mi West 8.1 mph - N/A   Scattered Clouds
3:14 PM 88.7 °F 91.9 °F 67.5 °F 49% 29.93 in 10.0 mi WSW 9.2 mph - N/A   Scattered Clouds
3:34 PM 88.7 °F 93.0 °F 68.9 °F 52% 29.92 in 10.0 mi WSW 6.9 mph - N/A   Scattered Clouds
3:54 PM 88.3 °F 93.6 °F 70.2 °F 55% 29.92 in 10.0 mi West 6.9 mph - N/A   Scattered Clouds
4:14 PM 87.4 °F 93.1 °F 71.2 °F 58% 29.91 in 10.0 mi West 6.9 mph - N/A   Scattered Clouds
4:34 PM 87.3 °F 93.6 °F 71.6 °F 60% 29.90 in 10.0 mi West 6.9 mph - N/A   Scattered Clouds
4:54 PM 86.2 °F 92.2 °F 71.8 °F 62% 29.90 in 10.0 mi West 6.9 mph - N/A   Scattered Clouds
5:14 PM 84.4 °F 90.6 °F 72.9 °F 68% 29.90 in 10.0 mi WSW 4.6 mph - N/A Rain Rain
5:34 PM 77.2 °F - 70.0 °F 78% 29.90 in 10.0 mi West 9.2 mph - N/A Rain Light Rain
5:54 PM 76.6 °F - 72.9 °F 88% 29.90 in 10.0 mi WSW 6.9 mph - N/A Rain Light Rain
6:14 PM 76.3 °F - 71.4 °F 85% 29.91 in 10.0 mi NNW 6.9 mph - N/A Rain Light Rain
6:34 PM 75.9 °F - 70.7 °F 84% 29.91 in 10.0 mi Calm Calm - N/A   Drizzle
6:54 PM 75.9 °F - 72.7 °F 90% 29.89 in 10.0 mi SE 4.6 mph - N/A Rain Light Rain
7:14 PM 77.0 °F - 72.7 °F 86% 29.89 in 10.0 mi SSE 6.9 mph - N/A   Mostly Cloudy
7:34 PM 77.0 °F - 72.7 °F 86% 29.88 in 10.0 mi South 6.9 mph - N/A   Overcast
7:54 PM 77.0 °F - 73.0 °F 88% 29.89 in 10.0 mi SSW 6.9 mph - N/A   Overcast
8:14 PM 76.6 °F - 73.0 °F 89% 29.88 in 10.0 mi SSW 6.9 mph - N/A   Overcast
8:34 PM 76.5 °F - 73.4 °F 90% 29.87 in 7.0 mi South 6.9 mph - N/A   Scattered Clouds
8:54 PM 76.6 °F - 73.8 °F 91% 29.87 in 7.0 mi SSW 5.8 mph - N/A   Mostly Cloudy
9:14 PM 76.5 °F - 74.1 °F 92% 29.87 in 5.0 mi South 6.9 mph - N/A   Overcast
9:34 PM 76.1 °F - 73.9 °F 93% 29.87 in 5.0 mi SSW 8.1 mph - N/A   Mostly Cloudy
9:54 PM 75.7 °F - 73.8 °F 94% 29.87 in 7.0 mi SSW 6.9 mph - N/A   Scattered Clouds
10:14 PM 75.6 °F - 73.6 °F 94% 29.88 in 7.0 mi SSW 6.9 mph - N/A   Mostly Cloudy
10:34 PM 75.7 °F - 74.3 °F 95% 29.88 in 5.0 mi SSW 6.9 mph - N/A   Overcast
10:54 PM 75.6 °F - 73.9 °F 95% 29.87 in 5.0 mi SSW 8.1 mph - N/A   Mostly Cloudy
11:14 PM 75.4 °F - 73.6 °F 94% 29.87 in 5.0 mi SSW 6.9 mph - N/A   Scattered Clouds
11:34 PM 75.2 °F - 73.4 °F 94% 29.87 in 7.0 mi SSW 5.8 mph - N/A   Scattered Clouds
11:54 PM 74.8 °F - 73.0 °F 94% 29.87 in 7.0 mi SSW 5.8 mph - N/A   Scattered Clouds